Home   Weather   Kowloon   Past weeks

Flag for Hong Kong Past Weather in Kowloon, Hong Kong — Yesterday and Last 2 Weeks

Now
64 °F

Passing clouds.


Feels Like: 64 °F
Forecast: 64 / 69 °F
Wind: 12 mph from North

Location: National Airport

Current Time: Jan 17, 2017 at 11:23:26 pm

Latest Report: Jan 17, 2017 at 11:00 pm


Visibility: 5 mi

Pressure: 30.18 "Hg

Humidity: 83%

Dew Point: 59 °F

Location of KowloonLocation

Past Weather in Kowloon — Graph

°F

Kowloon Temperature Yesterday

Maximum temperature yesterday: 64 °F (at 3:30 pm)
Minimum temperature yesterday: 57 °F (at 2:30 am)
Average temperature yesterday: 61 °F

High & Low Weather Summary for the Past Weeks

 TemperatureHumidityPressure
High81 °F (Jan 7, 1:00 pm)94% (Jan 13, 11:00 pm)30.18 "Hg (Jan 13, 11:00 pm)
Low55 °F (Jan 14, 5:00 am)51% (Jan 4, 1:30 pm)29.86 "Hg (Jan 7, 2:30 pm)
Average68 °F74%30.04 "Hg
* Reported Jan 2 10:00 pm — Jan 17 10:00 pm, Kowloon, Weather by CustomWeather, © 2017

Note: Actual official high and low records may vary slightly from our data, if they occured in-between our weather recording intervals... More about our weather records

Advertising

Kowloon Weather History for the Previous 24 Hours

Scroll right to see more
 ConditionsComfort  
Time TempWeatherWind HumidityBarometerVisibility
10:00 pm
Tue, Jan 17
64 °FPassing clouds.12 mph83%30.18 "Hg4 mi
9:30 pm64 °FPassing clouds.10 mph83%30.18 "Hg4 mi
9:00 pm64 °FPassing clouds.12 mph83%30.18 "Hg4 mi
8:30 pm66 °FPassing clouds.10 mph78%30.18 "Hg4 mi
8:00 pm66 °FPassing clouds.6 mph73%30.15 "HgN/A
7:30 pm68 °FPassing clouds.7 mph69%30.15 "HgN/A
7:00 pm68 °FPassing clouds.9 mph69%30.12 "HgN/A
6:30 pm68 °FPassing clouds.8 mph64%30.12 "HgN/A
6:00 pm68 °FScattered clouds.9 mph64%30.12 "HgN/A
5:30 pm68 °FScattered clouds.9 mph64%30.09 "HgN/A
5:00 pm68 °FScattered clouds.9 mph69%30.09 "HgN/A
4:30 pm68 °FScattered clouds.10 mph64%30.09 "HgN/A
4:00 pm68 °FScattered clouds.8 mph64%30.09 "HgN/A
3:30 pm68 °FScattered clouds.7 mph64%30.09 "HgN/A
3:00 pm68 °FScattered clouds.6 mph64%30.09 "HgN/A
2:30 pm70 °FScattered clouds.7 mph60%30.09 "HgN/A
2:00 pm70 °FScattered clouds.8 mph60%30.09 "HgN/A
1:30 pm70 °FScattered clouds.9 mph60%30.12 "HgN/A
1:00 pm68 °FScattered clouds.6 mph64%30.12 "HgN/A
12:30 pm68 °FScattered clouds.5 mph64%30.15 "HgN/A
12:00 pm70 °FScattered clouds.6 mph60%30.15 "HgN/A
11:30 am68 °FScattered clouds.8 mph64%30.18 "HgN/A
11:00 am68 °FScattered clouds.14 mph64%30.18 "HgN/A
10:30 am68 °FScattered clouds.13 mph60%30.18 "HgN/A
10:00 am68 °FPassing clouds.15 mph60%30.18 "HgN/A
9:30 am68 °FPassing clouds.15 mph64%30.18 "HgN/A
9:00 am66 °FScattered clouds.15 mph64%30.15 "HgN/A
8:30 am64 °FScattered clouds.10 mph73%30.18 "HgN/A
8:00 am63 °FScattered clouds.12 mph73%30.15 "HgN/A
7:30 am63 °FScattered clouds.13 mph73%30.15 "HgN/A
7:00 am63 °FPassing clouds.13 mph73%30.12 "HgN/A
6:30 am63 °FPassing clouds.12 mph73%30.12 "HgN/A
6:00 am63 °FPassing clouds.12 mph73%30.12 "HgN/A
5:30 am63 °FPassing clouds.9 mph73%30.12 "HgN/A
5:00 am63 °FPassing clouds.8 mph77%30.12 "HgN/A
4:30 am63 °FPassing clouds.10 mph73%30.12 "HgN/A
4:00 am63 °FPassing clouds.14 mph73%30.09 "HgN/A
3:30 am63 °FPassing clouds.16 mph73%30.09 "HgN/A
3:00 am63 °FPassing clouds.14 mph73%30.12 "HgN/A
2:30 am64 °FPassing clouds.13 mph68%30.12 "HgN/A
2:00 am64 °FPassing clouds.14 mph64%30.12 "HgN/A
1:30 am64 °FPassing clouds.10 mph64%30.15 "HgN/A
1:00 am64 °FPassing clouds.10 mph68%30.15 "HgN/A
12:30 am64 °FPassing clouds.13 mph68%30.15 "HgN/A
12:00 am64 °FPassing clouds.16 mph73%30.15 "HgN/A
11:30 pm
Mon, Jan 16
64 °FPassing clouds.13 mph73%30.15 "HgN/A
11:00 pm64 °FPassing clouds.16 mph68%30.15 "HgN/A
Weather by CustomWeather, © 2017

See weather overviewHow to use our weather pages